Change the Weather History Date:

Saturday, May 25, 2013

  Actual Average Record
Temperature  
Mean Temperature 57 °F 58 °F  
Max Temperature 68 °F 70 °F 90 °F (1947)
Min Temperature 46 °F 47 °F 31 °F (1920)
Degree Days  
Heating Degree Days 8 7  
Month to date heating degree days 166 238  
Since 1 July heating degree days 4155 4481  
Cooling Degree Days 0 0  
Month to date cooling degree days 10 0  
Year to date cooling degree days 10 0  
Growing Degree Days 7 (Base 50)    
Moisture  
Dew Point 47 °F    
Average Humidity 73    
Maximum Humidity 100    
Minimum Humidity 45    
Precipitation  
Precipitation 0.00 in 0.08 in 0.88 in (1895)
Month to date precipitation 1.62 1.77  
Year to date precipitation 9.27 19.09  
Snow  
Snow 0.00 in - - ()
Month to date snowfall 0.0  
Snow Depth 0.00 in    
Sea Level Pressure  
Sea Level Pressure 30.02 in    
Wind  
Wind Speed 4 mph (SW)    
Max Wind Speed 13 mph    
Max Gust Speed 17 mph    
Visibility 10 miles    
Events Rain    
T = Trace of Precipitation, MM = Missing Value Source: NWS Daily Summary

Daily Weather History Graph

Daily Weather History Graph

Search for Another Location

Airport or City:

Trip Planner

Search our weather history database for the weather conditions in past years. The results will help you decide how hot, cold, wet, or windy it might be!

Date:

Astronomy

May. 25, 2013 Rise Set
Actual Time 5:33 AM PDT 8:45 PM PDT
Civil Twilight 4:57 AM PDT 9:20 PM PDT
Nautical Twilight 4:12 AM PDT 10:06 PM PDT
Astronomical Twilight 3:15 AM PDT 11:03 PM PDT
Moon 9:38 PM PDT (5/25) 6:06 AM PDT (5/25)
Length of Visible Light 16h 22m
Length of Day
15h 11m
Waxing Gibbous, 99% of the Moon is Illuminated
May 25
Waxing Gibbous
May 31
Last Quarter
Jun 8
New
Jun 16
First Quarter
Jun 23
Full

Hourly Weather History & Observations

Time (PDT) Temp. Dew Point Humidity Pressure Visibility Wind Dir Wind Speed Gust Speed Precip Events Conditions
12:56 AM 50.0 °F 46.0 °F 86% 30.08 in 10.0 mi SW 5.8 mph - N/A   Overcast
1:56 AM 48.0 °F 45.0 °F 89% 30.08 in 10.0 mi Calm Calm - N/A   Scattered Clouds
2:56 AM 46.9 °F 45.0 °F 93% 30.07 in 10.0 mi Calm Calm - N/A   Overcast
3:24 AM 48.2 °F 44.6 °F 87% 30.07 in 10.0 mi Calm Calm - N/A   Mostly Cloudy
3:56 AM 48.0 °F 46.0 °F 93% 30.07 in 10.0 mi SSE 3.5 mph - N/A   Overcast
4:56 AM 46.9 °F 46.0 °F 97% 30.06 in 10.0 mi Calm Calm - N/A   Mostly Cloudy
5:56 AM 48.0 °F 46.0 °F 93% 30.06 in 10.0 mi Calm Calm - N/A   Overcast
6:56 AM 48.9 °F 46.0 °F 90% 30.07 in 10.0 mi Calm Calm - N/A   Mostly Cloudy
7:56 AM 53.1 °F 46.9 °F 80% 30.06 in 10.0 mi SSW 5.8 mph - N/A   Mostly Cloudy
8:56 AM 53.1 °F 46.0 °F 77% 30.06 in 10.0 mi South 6.9 mph - N/A   Overcast
9:03 AM 53.6 °F 46.4 °F 77% 30.06 in 10.0 mi South 8.1 mph - N/A   Overcast
9:56 AM 55.0 °F 45.0 °F 69% 30.05 in 10.0 mi South 6.9 mph - N/A   Overcast
10:56 AM 57.9 °F 46.0 °F 65% 30.04 in 10.0 mi South 11.5 mph - N/A   Mostly Cloudy
11:56 AM 60.1 °F 46.0 °F 60% 30.04 in 10.0 mi South 8.1 mph - N/A   Mostly Cloudy
12:56 PM 61.0 °F 45.0 °F 56% 30.02 in 10.0 mi Variable 5.8 mph - N/A   Scattered Clouds
1:56 PM 64.0 °F 45.0 °F 50% 30.01 in 10.0 mi SW 8.1 mph - N/A   Scattered Clouds
2:56 PM 66.0 °F 45.0 °F 47% 29.99 in 10.0 mi SSW 8.1 mph - N/A   Overcast
3:56 PM 66.0 °F 44.1 °F 45% 29.98 in 10.0 mi Calm Calm - N/A   Clear
4:56 PM 66.9 °F 45.0 °F 45% 29.96 in 10.0 mi Calm Calm - N/A   Partly Cloudy
5:56 PM 66.9 °F 46.0 °F 47% 29.95 in 10.0 mi Calm Calm - N/A   Mostly Cloudy
6:56 PM 64.9 °F 48.0 °F 54% 29.94 in 10.0 mi WNW 5.8 mph - N/A   Mostly Cloudy
7:56 PM 62.1 °F 50.0 °F 65% 29.94 in 10.0 mi WNW 6.9 mph - N/A   Mostly Cloudy
8:56 PM 60.1 °F 50.0 °F 69% 29.93 in 10.0 mi West 4.6 mph - N/A   Overcast
9:56 PM 57.9 °F 48.0 °F 70% 29.94 in 10.0 mi WNW 3.5 mph - N/A   Overcast
10:56 PM 54.0 °F 52.0 °F 93% 29.96 in 7.0 mi SW 3.5 mph - 0.07 in Rain Light Rain
11:56 PM 54.0 °F 53.1 °F 97% 29.97 in 10.0 mi Calm Calm - 0.09 in Rain Light Rain